Weather Roundup
Issued by NWS

Home | Current Version | Previous Version | Graphics & Text | Print | Product List | Glossary Off
Versions: 1 2 3 4 5 6 7 8 9 10 11 12 13 14 15 16 17 18 19 20 21 22 23 24 25 26 27 28 29 30 31 32 33 34 35 36 37 38 39 40 41 42 43 44 45 46 47 48 49 50

000
NZUS93 KARX 241659
HRRWXR

CURRENT HOURLY OBSERVATIONS ACROSS
MUCH OF THE UPPER MISSISSIPPI VALLEY
NATIONAL WEATHER SERVICE LA CROSSE WI
1200 PM CDT THU APR 24 2014


...SOUTHEAST MINNESOTA...


CITY           SKY/WX    TMP DP  RH WIND       PRES   REMARKS
ROCHESTER      LGT RAIN  41  38  89 SE18      29.70S FOG
ROCHESTER/MAYO CLOUDY    40  38  92 E13G22    29.71S WCI  33
WINONA         CLOUDY    41  39  93 SE12G18   29.75F
AUSTIN         LGT RAIN  43  39  87 SE9G16    29.68S
ALBERT LEA     CLOUDY    43  43 100 SE7       29.67F FOG
DODGE CENTER   LGT RAIN  43  43 100 SE13      29.70R
PRESTON        LGT RAIN  42  39  91 SE15G22   29.71F
OWATONNA       MIX PCPN  43  39  87 SE7       29.70S
FARIBAULT      DRIZZLE   45  39  81 E7        29.72S
$$

...ELSEWHERE IN MINNESOTA...


CITY           SKY/WX    TMP DP  RH WIND       PRES   REMARKS
MINNEAPOLIS    LGT RAIN  41  40  96 E12       29.74F FOG
INTNL FALLS    LGT RAIN  39  36  89 SE13      29.85F WCI  31
DULUTH         SNOW      33  31  92 E17       29.85F VSB 1/2 WCI  22
RED WING       LGT RAIN  43  39  87 SE13G18   29.74R
REDWOOD FALLS  LGT RAIN  44  42  93 E5        29.70F FOG
MANKATO        CLOUDY    43  39  87 SE8       29.71S
WORTHINGTON    CLOUDY    46  39  76 N20       29.71R
FAIRMONT       CLOUDY    43  39  87 N3        29.70F
$$

...SOUTHWEST WISCONSIN...


CITY           SKY/WX    TMP DP  RH WIND       PRES   REMARKS
LA CROSSE      LGT RAIN  43  40  89 SE12G20   29.76F FOG
PRAIRIE DU CHI RAIN      46  40  80 E3        29.78R
BOSCOBEL       LGT RAIN  48  41  76 NE5       29.79F
LONE ROCK      NOT AVBL
PLATTEVILLE    CLOUDY    54  40  60 SE18G26   29.77F
FORT MC COY    RAIN      41  39  93 SE10      29.82F
VIROQUA        CLOUDY    41  40  98 E16G25    29.78S
WIS DELLS      DRIZZLE   43  37  79 E10       29.84F
$$

...ELSEWHERE IN WISCONSIN...


CITY           SKY/WX    TMP DP  RH WIND       PRES   REMARKS
MILWAUKEE      CLOUDY    50  37  61 SE17      29.96F
MADISON        CLOUDY    51  39  63 SE17      29.84F
GREEN BAY      LGT RAIN  42  39  89 E10       29.99F
EAU CLAIRE     NOT AVBL
BLACK RVR FLS  HVY RAIN  42  41  98 E12G18    29.80F
MEDFORD        RAIN      37  35  94 E16G24    29.86F WCI  27
WAUSAU         MIX PCPN  37  35  92 E15       29.89F FOG     WCI  28
WIS RAPIDS     LGT RAIN  42  38  85 E14G20    29.88F
MARSHFIELD     LGT RAIN  40  37  89 SE21G29   29.84F FOG     WCI  30
RICE LAKE      LGT RAIN  40  38  92 E9G16     29.82F WCI  34
$$

...NORTHEAST IOWA...


CITY           SKY/WX    TMP DP  RH WIND       PRES   REMARKS
WATERLOO       LGT RAIN  47  45  93 S8        29.69S FOG
DUBUQUE        CLOUDY    56  40  55 S22G29    29.74F
DECORAH        LGT RAIN  43  43 100 SE14G21   29.71F
MASON CITY     LGT RAIN  45  44  97 SE8       29.67S FOG
CHARLES CITY   CLOUDY    45  43  93 SE18      29.68S FOG
OELWEIN        LGT RAIN N/A N/A N/A SE20G25   29.70F
$$

...ELSEWHERE IN IOWA...


CITY           SKY/WX    TMP DP  RH WIND       PRES   REMARKS
DES MOINES     CLOUDY    56  53  90 S3        29.66F
IOWA CITY      LGT RAIN  52  47  83 S13       29.76S
FORT DODGE     CLOUDY    54  46  76 W13       29.67S
MARSHALLTOWN   CLOUDY    49  47  93 S15       29.66F
CEDAR RAPIDS   CLOUDY    53  43  68 SE16G26   29.69F
$$

...NORTHERN ILLINOIS...


CITY           SKY/WX    TMP DP  RH WIND       PRES   REMARKS
CHICAGO-OHARE  CLOUDY    60  35  39 SE25G32   29.90F
DUPAGE         CLOUDY    61  38  42 S20G33    29.89F
CHICAGO-MIDWAY CLOUDY    61  37  41 S17G28    29.92F
MOLINE         CLOUDY    65  39  38 S20G28    29.74F
ROCKFORD       CLOUDY    62  39  42 S29G39    29.84F
STERLING       CLOUDY    63  37  39 SE15G26   29.79F
PEORIA         PTSUNNY   68  37  32 SE18G26   29.81F
$$

NOTE: "FAIR" INDICATES FEW OR NO CLOUDS BELOW 12,000 FEET WITH NO
SIGNIFICANT WEATHER AND/OR OBSTRUCTIONS TO VISIBILITY. WIND
SPEEDS ARE IN MILES-PER-HOUR.



USA.gov is the U.S. government's official web portal to all federal, state and local government web resources and services.